User: anonymous   Login
Location: Mauna Kea VIS
(19.7591°N, 155.4561°W)
Time: 00:27:14
(UTC-10:00)
Language:

Cosmos 1624 Rocket - Orbit

View from above orbital plane
View from above orbital plane
View from above satellite
View from above satellite

Ground track
Ground track

The orbit data is extracted from the following two-line orbital elements,

1 15483U 85006B   15125.51904672  .00000171  00000-0  67650-4 0  9995
2 15483 074.0454 334.9681 0018472 149.2181 231.4576 14.36012441585494
Epoch (UTC): 05 May 2015 12:27:25
Eccentricity: 0.0018472
inclination: 74.0454°
perigee height: 758 km
apogee height: 785 km
right ascension of ascending node: 334.9681°
argument of perigee: 149.2181°
revolutions per day: 14.36012441
mean anomaly at epoch: 231.4576°
orbit number at epoch: 58549

The dashed part of the orbit path shows where the satellite is in the earth's shadow,  

DLR